Tracking 35334 objects as of 13-Sep-2026
HD Live streaming from Space Station
objects crossing your sky now

ICEYE-X17


ICEYE-X17 is no longer on orbit


NORAD ID: 52762
Int'l Code: 2022-057AG
Launch date: May 25, 2022
Source: United States (US)
Launch site: AIR FORCE EASTERN TEST RANGE (AFETR)
Decay date: 2025-08-08
Your satellite tracking list
Your tracking list is empty




NASA's NSSDC Master Catalog

Two Line Element Set (TLE):
1 52762U 22057AG  25220.12151488  .08347865  26631-5  32938-3 0  9991
2 52762  97.5609  11.6698 0014376 275.8374  84.1287 16.42436510178994
Source of the keplerian elements: AFSPC